Home > Weather > East Hants > Past weeks

Flag for Canada Past Weather in East Hants, Nova Scotia, Canada — Yesterday and Last 2 Weeks

Now
63 °F

Light rain. Fog.


Feels Like: 63 °F
Forecast: 62 / 71 °F
Wind: 8 mph from South

Location: Halifax International Airport

Current Time: Jul 26, 2016 at 9:10:45 AM

Latest Report: Jul 26, 2016 at 8:00 AM


Visibility: 1 mi

Pressure: 29.83 "Hg

Humidity: 100%

Dew Point: 63 °F

Location of East HantsLocation

Past Weather in East Hants — Graph

°F

East Hants Temperature Yesterday

Maximum temperature yesterday: 82 °F (at 1:00 PM)
Minimum temperature yesterday: 64 °F (at 1:00 AM)
Average temperature yesterday: 73 °F

High & Low Weather Summary for the Past Weeks

 TemperatureHumidityPressure
High86 °F (Jul 16, 1:00 PM)100% (Jul 11, 7:00 AM)30.18 "Hg (Jul 11, 7:00 AM)
Low55 °F (Jul 11, 7:00 AM)33% (Jul 12, 5:00 PM)29.67 "Hg (Jul 23, 5:00 PM)
Average68 °F78%29.92 "Hg
* Reported Jul 11 7:00 AM — Jul 26 7:00 AM, East Hants, Weather by CustomWeather, © 2016

Note: Actual official high and low records may vary slightly from our data, if they occured in-between our weather recording intervals... More about our weather records

Advertising

East Hants Weather History for the Previous 24 Hours

Scroll right to see more
 ConditionsComfort  
Time TempWeatherWind HumidityBarometerVisibility
7:00 AM
Tue, Jul 26
61 °FLight rain. Mostly cloudy.9 mph100%29.82 "Hg8 mi
6:46 AM61 °FLight rain. Mostly cloudy.8 mph100%29.82 "Hg8 mi
6:00 AM61 °FPassing clouds.7 mph100%29.82 "Hg12 mi
5:00 AM63 °FMostly cloudy.6 mph94%29.83 "Hg10 mi
4:00 AM63 °FFog.8 mph94%29.83 "Hg1 mi
3:00 AM63 °FFog.9 mph94%29.84 "Hg1 mi
2:00 AM63 °FSandstorm.7 mph94%29.84 "Hg2 mi
1:00 AM63 °FMostly cloudy.6 mph100%29.85 "Hg12 mi
12:00 AM64 °FPassing clouds.13 mph94%29.85 "Hg15 mi
11:00 PM
Mon, Jul 25
66 °FPassing clouds.12 mph94%29.86 "Hg15 mi
10:00 PM68 °FOvercast.8 mph88%29.88 "Hg15 mi
9:00 PM72 °FMore clouds than sun.6 mph73%29.89 "Hg15 mi
8:00 PM73 °FPartly sunny.5 mph74%29.88 "Hg15 mi
7:00 PM79 °FBroken clouds.10 mph61%29.88 "Hg15 mi
6:00 PM81 °FBroken clouds.13 mph54%29.87 "Hg15 mi
5:00 PM82 °FBroken clouds.10 mph51%29.88 "Hg15 mi
4:00 PM82 °FBroken clouds.13 mph58%29.87 "Hg15 mi
3:00 PM82 °FBroken clouds.N/A55%N/A15 mi
2:00 PM82 °FBroken clouds.12 mph55%29.90 "Hg15 mi
1:00 PM82 °FScattered clouds.6 mph55%29.92 "Hg15 mi
12:00 PM81 °FScattered clouds.8 mph62%29.93 "Hg15 mi
11:00 AM79 °FPassing clouds.6 mph65%29.93 "Hg15 mi
10:00 AM75 °FScattered clouds.No wind74%29.94 "Hg15 mi
9:00 AM70 °FPartly sunny.2 mph83%29.94 "Hg15 mi
Weather by CustomWeather, © 2016

See weather overviewHow to use our weather pages